SNORRE B OILP current weather conditions

sailwx.info

Wind from 310 at 20 knots

Air temperature 6.0° C
Visibility: greater than 5.4 NM
Dewpoint -2.0° C

Last reported at 2014-Dec-20 02:20 UTC.
Time now 2014-Dec-20 03:40 UTC

Location: N 61°32' E 002°13'.
View on Google Maps.

See reports from other nearby stations

  
Tides and Currents Weather Stations Pressure Air Temp Water Temp Dewpoint Dewpoint Depression Visibility Wind Speed Wind Dir Waves Ship Positions
date/time (UTC)wind fromknots sea level pressurealtimeterstation pressurevisibilityair tempwater tempwave heightnotes
2014-Dec-20 02:20 310 20 5.4 6.0
2014-Dec-20 01:50 320 22 5.4 6.0
2014-Dec-20 01:20 320 25 5.4 5.0
2014-Dec-20 00:50 320 23 5.4 5.0
2014-Dec-20 00:20 320 27 5.4 4.0
2014-Dec-19 23:50 290 34 gusting 44 5.4 5.0 Light rain showers.
2014-Dec-19 23:20 270 34 gusting 45 5.4 5.0
2014-Dec-19 22:50 250 22 5.4 4.0 Light rain showers.
2014-Dec-19 22:20 290 27 5.4 5.0
2014-Dec-19 21:50 270 27 5.4 5.0
2014-Dec-19 21:20 250 19 5.4 4.0
2014-Dec-19 20:50 260 18 5.4 4.0 Light rain showers.
2014-Dec-19 20:20 260 36 gusting 49 2.2 3.0 Light rain snow. Mist.
2014-Dec-19 19:50 270 25 5.4 6.0
2014-Dec-19 19:20 270 24 5.4 5.0
2014-Dec-19 18:50 280 31 5.4 5.0
2014-Dec-19 18:20 280 29 gusting 39 5.4 5.0 Light rain showers.
2014-Dec-19 17:50 290 36 5.4 6.0 Light rain showers.
2014-Dec-19 17:20 270 20 5.4 3.0 Light rain showers.
2014-Dec-19 16:50 290 38 4.9 3.0 Light rain showers.
2014-Dec-19 16:20 300 8 gusting 20 2.7 3.0 Rain showers.
2014-Dec-19 15:50 300 16 5.4 5.0 Light rain showers.
2014-Dec-19 15:20 260 13 5.4 5.0 Light rain showers.
2014-Dec-19 14:50 250 20 5.4 5.0 Light drizzle.
2014-Dec-19 14:20 280 19 5.4 5.0
2014-Dec-19 13:50 290 16 5.4 5.0 Light rain showers.
2014-Dec-19 13:20 280 17 5.4 6.0
2014-Dec-19 12:50 280 23 5.4 5.0 Light rain showers.
2014-Dec-19 12:20 270 25 5.4 5.0 Light rain showers.
2014-Dec-19 11:50 260 27 5.4 5.0 Light rain showers.
2014-Dec-19 11:20 260 20 5.4 6.0
2014-Dec-19 10:50 240 9 gusting 23 5.4 4.0 Light rain showers.
2014-Dec-19 10:20 240 12 5.4 4.0 Light rain showers.
2014-Dec-19 09:50 220 15 5.4 3.0 Light rain showers.
2014-Dec-19 09:20 250 20 5.4 3.0 Light rain showers.
2014-Dec-19 08:50 250 34 5.4 3.0 Light rain showers.
2014-Dec-19 08:20 250 18 5.4 5.0
2014-Dec-19 07:50 250 24 5.4 5.0 Light rain showers.
2014-Dec-19 07:20 260 20 gusting 30 5.4 4.0
2014-Dec-19 06:50 260 32 gusting 43 2.3 3.0 Light rain snow. Mist.
2014-Dec-19 06:20 190 11 5.4 4.0
2014-Dec-19 05:50 210 10 5.4 4.0
2014-Dec-19 05:20 260 10 5.4 2.0 Light rain showers.
2014-Dec-19 04:50 250 25 4.9 4.0 Light rain.
2014-Dec-19 04:20 260 24 5.4 6.0
2014-Dec-19 03:50 240 30 5.4 6.0
2014-Dec-19 03:20 240 30 5.4 6.0
2014-Dec-19 02:50 250 34 gusting 46 5.4 5.0
2014-Dec-19 02:20 250 24 5.4 6.0
2014-Dec-19 01:50 250 39 5.4 6.0
2014-Dec-19 01:20 240 32 gusting 43 5.4 6.0
2014-Dec-19 00:50 240 26 gusting 38 5.4 6.0 Light rain showers.
2014-Dec-19 00:20 240 24 5.4 4.0 Light rain showers.
2014-Dec-18 23:50 280 25 5.4 4.0 Light rain showers.
2014-Dec-18 23:20 280 23 5.4 5.0
2014-Dec-18 22:50 240 25 5.4 6.0
2014-Dec-18 22:20 240 27 5.4 5.0
2014-Dec-18 21:50 250 27 5.4 5.0 Light rain showers.
2014-Dec-18 21:20 240 27 gusting 41 2.7 4.0 Light rain showers.
2014-Dec-18 20:50 230 19 5.4 4.0 Light rain showers.
2014-Dec-18 20:20 240 33 gusting 43 5.4 6.0 Light rain showers.
2014-Dec-18 19:50 240 18 gusting 27 2.7 4.0 Light rain showers. Mist.
2014-Dec-18 19:20 240 22 5.4 6.0
2014-Dec-18 18:50 230 25 4.9 6.0 Light rain.
2014-Dec-18 18:20 240 20 5.4 5.0
2014-Dec-18 17:50 250 27 5.4 6.0 Light rain showers.
2014-Dec-18 17:20 230 24 5.4 6.0
2014-Dec-18 16:50 240 26 5.4 6.0
2014-Dec-18 16:20 250 23 5.4 7.0
2014-Dec-18 15:50 230 23 5.4 7.0
2014-Dec-18 15:20 230 25 5.4 7.0
2014-Dec-18 14:50 230 27 5.4 7.0
2014-Dec-18 14:20 230 20 gusting 33 5.4 6.0
2014-Dec-18 13:50 230 27 5.4 7.0
2014-Dec-18 13:20 230 23 5.4 6.0
2014-Dec-18 12:50 230 19 5.4 5.0
2014-Dec-18 12:20 250 24 gusting 34 4.3 5.0 Light rain.
2014-Dec-18 11:50 240 20 5.4 6.0
2014-Dec-18 11:20 250 24 5.4 6.0
2014-Dec-18 10:50 250 23 5.4 6.0
2014-Dec-18 10:20 240 27 5.4 7.0
2014-Dec-18 09:50 240 24 5.4 7.0
2014-Dec-18 09:20 240 27 gusting 41 5.4 6.0 Light rain showers.
2014-Dec-18 08:50 240 23 5.4 7.0
2014-Dec-18 08:20 240 25 5.4 7.0
2014-Dec-18 07:50 260 27 2.7 5.0 Light rain. Mist.
2014-Dec-18 07:20 250 20 5.4 7.0
2014-Dec-18 06:50 250 23 5.4 6.0
2014-Dec-18 06:20 250 31 gusting 46 4.3 6.0 Light rain showers.
2014-Dec-18 05:50 240 30 5.4 7.0
2014-Dec-18 05:20 230 32 5.4 7.0 Light rain showers.
2014-Dec-18 04:50 240 20 gusting 35 5.4 6.0 Light rain showers.
2014-Dec-18 04:20 230 32 5.4 7.0
2014-Dec-18 03:50 220 31 5.4 8.0
2014-Dec-18 03:20 220 31 5.4 7.0